| time (UTC) | temp F | wind direction | speed MPH | gust MPH | rain 1hr in | rain 24hr in | rain mn in | humidity % | barometer mb |
| 20260502205003 | 62 | 149 | 5.0 | 12.0 | 0.00 | 0.00 | 0.00 | 74 | 1014.4 |
| 20260502204003 | 60 | 24 | 1.0 | 4.0 | 0.00 | 0.00 | 0.00 | 75 | 1014.0 |
| 20260502203003 | 62 | 16 | 1.0 | 3.0 | 0.00 | 0.00 | 0.00 | 73 | 1013.9 |
| 20260502202003 | 62 | 14 | 2.0 | 3.0 | 0.00 | 0.00 | 0.00 | 73 | 1013.6 |
| 20260502201216 | 61 | 13 | 1.0 | 3.0 | 0.00 | 0.00 | 0.00 | 73 | 1013.8 |
| 20260502200003 | 62 | 14 | 1.0 | 3.0 | 0.00 | 0.00 | 0.00 | 73 | 1014.0 |
| 20260502195003 | 63 | 13 | 1.0 | 3.0 | 0.00 | 0.00 | 0.00 | 73 | 1014.0 |
| 20260502194003 | 64 | 12 | 1.0 | 3.0 | 0.00 | 0.00 | 0.00 | 73 | 1014.0 |
| 20260502193003 | 63 | 12 | 0.0 | 2.0 | 0.00 | 0.00 | 0.00 | 73 | 1014.0 |
| 20260502192003 | 64 | 12 | 1.0 | 3.0 | 0.00 | 0.00 | 0.00 | 72 | 1013.9 |
| 20260502191216 | 64 | 12 | 1.0 | 3.0 | 0.00 | 0.00 | 0.00 | 73 | 1013.8 |
| 20260502190004 | 64 | 11 | 1.0 | 3.0 | 0.00 | 0.00 | 0.00 | 72 | 1013.7 |
| 20260502185215 | 65 | 11 | 2.0 | 3.0 | 0.00 | 0.00 | 0.00 | 71 | 1013.8 |
| 20260502184003 | 65 | 12 | 2.0 | 5.0 | 0.00 | 0.00 | 0.00 | 71 | 1013.8 |
| 20260502183219 | 66 | 14 | 2.0 | 5.0 | 0.00 | 0.00 | 0.00 | 71 | 1013.8 |
| 20260502182003 | 66 | 6 | 2.0 | 5.0 | 0.00 | 0.00 | 0.00 | 71 | 1013.8 |
| 20260502181003 | 67 | 341 | 3.0 | 8.0 | 0.00 | 0.00 | 0.00 | 70 | 1013.8 |
| 20260502164003 | 74 | 269 | 4.0 | 7.0 | 0.00 | 0.00 | 0.00 | 61 | 1014.2 |
| 20260502163003 | 73 | 257 | 5.0 | 9.0 | 0.00 | 0.00 | 0.00 | 63 | 1014.3 |
| 20260502162003 | 74 | 245 | 4.0 | 7.0 | 0.00 | 0.00 | 0.00 | 58 | 1014.4 |
| 20260502161003 | 74 | 214 | 4.0 | 8.0 | 0.00 | 0.00 | 0.00 | 58 | 1014.5 |
| 20260502152003 | 75 | 220 | 5.0 | 10.0 | 0.00 | 0.00 | 0.00 | 56 | 1014.9 |
| 20260502151218 | 74 | 241 | 6.0 | 10.0 | 0.00 | 0.00 | 0.00 | 57 | 1015.1 |
| 20260502123003 | 74 | 231 | 7.0 | 15.0 | 0.00 | 0.00 | 0.00 | 53 | 1016.6 |
| 20260502122003 | 74 | 228 | 6.0 | 14.0 | 0.00 | 0.00 | 0.00 | 56 | 1016.6 |
| 20260502121003 | 74 | 209 | 8.0 | 14.0 | 0.00 | 0.00 | 0.00 | 54 | 1016.6 |
| 20260502115003 | 73 | 231 | 9.0 | 15.0 | 0.00 | 0.00 | 0.00 | 57 | 1016.7 |
| 20260502114003 | 74 | 254 | 8.0 | 14.0 | 0.00 | 0.00 | 0.00 | 56 | 1016.8 |
| 20260502113003 | 74 | 238 | 7.0 | 15.0 | 0.00 | 0.00 | 0.00 | 51 | 1016.9 |
| 20260502112219 | 74 | 248 | 7.0 | 13.0 | 0.00 | 0.00 | 0.00 | 59 | 1016.7 |
| 20260502111003 | 74 | 245 | 9.0 | 14.0 | 0.00 | 0.00 | 0.00 | 55 | 1016.9 |
| 20260502110003 | 74 | 232 | 8.0 | 16.0 | 0.00 | 0.00 | 0.00 | 54 | 1017.0 |
| 20260502105003 | 73 | 203 | 7.0 | 13.0 | 0.00 | 0.00 | 0.00 | 53 | 1017.0 |
| 20260502104003 | 73 | 210 | 6.0 | 14.0 | 0.00 | 0.00 | 0.00 | 47 | 1017.0 |
| 20260502103003 | 72 | 194 | 6.0 | 11.0 | 0.00 | 0.00 | 0.00 | 48 | 1017.1 |
| 20260502102218 | 71 | 187 | 6.0 | 10.0 | 0.00 | 0.00 | 0.00 | 48 | 1017.2 |
| 20260502101003 | 71 | 181 | 5.0 | 11.0 | 0.00 | 0.00 | 0.00 | 48 | 1017.3 |
| 20260502100218 | 71 | 177 | 6.0 | 10.0 | 0.00 | 0.00 | 0.00 | 49 | 1017.4 |
| 20260502091003 | 68 | 232 | 5.0 | 9.0 | 0.00 | 0.00 | 0.00 | 51 | 1017.5 |
| 20260502071219 | 64 | 189 | 5.0 | 8.0 | 0.00 | 0.00 | 0.00 | 53 | 1017.8 |
| 20260502070003 | 62 | 186 | 6.0 | 11.0 | 0.00 | 0.00 | 0.00 | 52 | 1018.0 |
| 20260502065003 | 62 | 180 | 6.0 | 11.0 | 0.00 | 0.00 | 0.00 | 51 | 1018.2 |
| 20260502064217 | 62 | 171 | 7.0 | 11.0 | 0.00 | 0.00 | 0.00 | 51 | 1018.1 |
| 20260502063003 | 60 | 164 | 7.0 | 11.0 | 0.00 | 0.00 | 0.00 | 54 | 1018.0 |
| 20260502062217 | 59 | 160 | 7.0 | 12.0 | 0.00 | 0.00 | 0.00 | 56 | 1018.0 |
| 20260502061003 | 58 | 158 | 5.0 | 9.0 | 0.00 | 0.00 | 0.00 | 59 | 1017.9 |
| 20260502060003 | 56 | 164 | 5.0 | 9.0 | 0.00 | 0.00 | 0.00 | 62 | 1017.8 |
| 20260502055003 | 56 | 163 | 3.0 | 6.0 | 0.00 | 0.00 | 0.00 | 62 | 1017.8 |
| 20260502054003 | 54 | 165 | 4.0 | 7.0 | 0.00 | 0.00 | 0.00 | 64 | 1017.8 |
| 20260502053003 | 53 | 165 | 4.0 | 5.0 | 0.00 | 0.00 | 0.00 | 66 | 1017.9 |
| 20260502052003 | 52 | 167 | 4.0 | 6.0 | 0.00 | 0.00 | 0.00 | 66 | 1017.9 |
| 20260502051218 | 51 | 168 | 4.0 | 6.0 | 0.00 | 0.00 | 0.00 | 67 | 1018.0 |
| 20260502050216 | 50 | 167 | 3.0 | 4.0 | 0.00 | 0.00 | 0.00 | 66 | 1018.0 |
| 20260502045003 | 49 | 167 | 3.0 | 5.0 | 0.00 | 0.00 | 0.00 | 66 | 1018.0 |
| 20260502044003 | 47 | 168 | 1.0 | 2.0 | 0.00 | 0.00 | 0.00 | 70 | 1017.9 |
| 20260502043003 | 48 | 168 | 1.0 | 2.0 | 0.00 | 0.00 | 0.00 | 70 | 1017.9 |
| 20260502042003 | 48 | 168 | 1.0 | 2.0 | 0.00 | 0.00 | 0.00 | 68 | 1017.8 |
| 20260502041003 | 47 | 168 | 2.0 | 4.0 | 0.00 | 0.00 | 0.00 | 68 | 1018.0 |
| 20260502040216 | 47 | 168 | 2.0 | 4.0 | 0.00 | 0.00 | 0.00 | 69 | 1018.0 |
| 20260502035218 | 48 | 168 | 2.0 | 4.0 | 0.00 | 0.00 | 0.00 | 69 | 1018.1 |
| 20260502034003 | 49 | 168 | 2.0 | 4.0 | 0.00 | 0.00 | 0.00 | 65 | 1018.3 |
| 20260502033003 | 49 | 168 | 2.0 | 4.0 | 0.00 | 0.00 | 0.00 | 66 | 1018.3 |
| 20260502032216 | 49 | 168 | 1.0 | 4.0 | 0.00 | 0.00 | 0.00 | 66 | 1018.5 |
| 20260502031003 | 50 | 169 | 2.0 | 5.0 | 0.00 | 0.00 | 0.00 | 66 | 1018.5 |
| 20260502030003 | 48 | 170 | 2.0 | 4.0 | 0.00 | 0.00 | 0.00 | 69 | 1018.6 |
| 20260502025003 | 49 | 170 | 2.0 | 4.0 | 0.00 | 0.00 | 0.00 | 68 | 1018.5 |
| 20260502024003 | 48 | 170 | 1.0 | 4.0 | 0.00 | 0.00 | 0.00 | 69 | 1018.5 |
| 20260502023003 | 48 | 170 | 1.0 | 2.0 | 0.00 | 0.00 | 0.00 | 69 | 1018.5 |
| 20260502022003 | 50 | 170 | 2.0 | 4.0 | 0.00 | 0.00 | 0.00 | 63 | 1018.7 |
| 20260502021217 | 49 | 171 | 1.0 | 4.0 | 0.00 | 0.00 | 0.00 | 66 | 1018.7 |
| 20260502020003 | 50 | 171 | 1.0 | 2.0 | 0.00 | 0.00 | 0.00 | 65 | 1018.8 |
| 20260502015003 | 49 | 171 | 1.0 | 2.0 | 0.00 | 0.00 | 0.00 | 65 | 1018.9 |
| 20260502014003 | 50 | 171 | 1.0 | 2.0 | 0.00 | 0.00 | 0.00 | 64 | 1019.0 |
| 20260502013003 | 50 | 171 | 1.0 | 4.0 | 0.00 | 0.00 | 0.00 | 65 | 1019.1 |
| 20260502012003 | 49 | 171 | 1.0 | 2.0 | 0.00 | 0.00 | 0.00 | 67 | 1019.1 |
| 20260502011003 | 49 | 171 | 1.0 | 2.0 | 0.00 | 0.00 | 0.00 | 68 | 1019.4 |
| 20260502010219 | 49 | 171 | 0.0 | 1.0 | 0.00 | 0.00 | 0.00 | 69 | 1019.4 |
| 20260502005003 | 48 | 0 | 0.0 | 0.0 | 0.00 | 0.00 | 0.00 | 71 | 1019.5 |
| 20260502004003 | 48 | 171 | 0.0 | 1.0 | 0.00 | 0.00 | 0.00 | 74 | 1019.6 |
| 20260502003003 | 46 | 171 | 0.0 | 1.0 | 0.00 | 0.00 | 0.00 | 77 | 1019.8 |
| 20260502002003 | 46 | 0 | 0.0 | 0.0 | 0.00 | 0.00 | 0.00 | 76 | 1019.7 |
| 20260502001003 | 47 | 0 | 0.0 | 0.0 | 0.00 | 0.00 | 0.00 | 76 | 1019.8 |
| 20260502000003 | 47 | 0 | 0.0 | 0.0 | 0.00 | 0.00 | 0.00 | 77 | 1019.9 |
| 20260501235003 | 46 | 171 | 0.0 | 1.0 | 0.00 | 0.00 | 0.00 | 79 | 1020.0 |
| 20260501234003 | 47 | 0 | 0.0 | 1.0 | 0.00 | 0.00 | 0.00 | 78 | 1020.1 |
| 20260501233003 | 47 | 0 | 0.0 | 0.0 | 0.00 | 0.00 | 0.00 | 76 | 1020.0 |
| 20260501232003 | 47 | 171 | 0.0 | 1.0 | 0.00 | 0.00 | 0.00 | 75 | 1020.0 |